• In Belarus
  • List of Countries
  • For 7 days
  • Water Temperature
  • Satellite Maps
  • Weather Map
  • Weather Widgets
  • user-avatar
    Login

    Hourly Weather Swinkow

    Today, 17 October, Wednesday

    Time Temperature Precipitation Wind Pressure Humidity
    00:00 +13°C° 0 mm 1 mps 744 mmHg 54%
    01:00 +13°C° 0 mm 1 mps 744 mmHg 57%
    02:00 +13°C° 0 mm 1 mps 744 mmHg 57%
    03:00 +12°C° 0 mm 0 mps 743 mmHg 58%
    04:00 +11°C° 0 mm 0 mps 743 mmHg 58%
    05:00 +11°C° 0 mm 0 mps 743 mmHg 59%
    06:00 +13°C° 0 mm 1 mps 744 mmHg 59%
    07:00 +13°C° 0 mm 1 mps 744 mmHg 57%
    08:00 +15°C° 0 mm 1 mps 744 mmHg 52%
    09:00 +16°C° 0 mm 1 mps 744 mmHg 47%
    10:00 +19°C° 0 mm 1 mps 744 mmHg 42%
    11:00 +20°C° 0 mm 1 mps 744 mmHg 40%
    12:00 +21°C° 0 mm 1 mps 743 mmHg 37%
    13:00 +23°C° 0 mm 1 mps 743 mmHg 35%
    14:00 +22°C° 0 mm 1 mps 743 mmHg 38%
    15:00 +21°C° 0 mm 1 mps 743 mmHg 41%
    16:00 +20°C° 0 mm 1 mps 743 mmHg 44%
    17:00 +19°C° 0 mm 1 mps 743 mmHg 46%
    18:00 +18°C° 0 mm 1 mps 742 mmHg 48%
    19:00 +16°C° 0 mm 2 mps 742 mmHg 50%
    20:00 +16°C° 0 mm 1 mps 743 mmHg 50%
    21:00 +16°C° 0 mm 1 mps 743 mmHg 51%
    22:00 +15°C° 0 mm 1 mps 743 mmHg 52%
    23:00 +15°C° 0 mm 1 mps 743 mmHg 52%

    Tomorrow, 18 October, Thursday

    Time Temperature Precipitation Wind Pressure Humidity
    00:00 +15°C° 0 mm 1 mps 742 mmHg 53%
    01:00 +14°C° 0 mm 1 mps 742 mmHg 54%
    02:00 +14°C° 0 mm 1 mps 742 mmHg 55%
    03:00 +14°C° 0 mm 1 mps 742 mmHg 57%
    04:00 +13°C° 0 mm 1 mps 742 mmHg 58%
    05:00 +13°C° 0 mm 1 mps 742 mmHg 60%
    06:00 +13°C° 0 mm 1 mps 742 mmHg 62%
    07:00 +13°C° 0 mm 1 mps 742 mmHg 64%
    08:00 +15°C° 0 mm 1 mps 742 mmHg 61%
    09:00 +16°C° 0 mm 1 mps 742 mmHg 58%
    10:00 +18°C° 0 mm 1 mps 742 mmHg 55%
    11:00 +19°C° 0 mm 1 mps 741 mmHg 52%
    12:00 +20°C° 0 mm 1 mps 741 mmHg 49%
    13:00 +21°C° 0 mm 1 mps 741 mmHg 47%
    14:00 +20°C° 0 mm 1 mps 741 mmHg 49%
    15:00 +20°C° 0 mm 1 mps 741 mmHg 52%
    16:00 +19°C° 0 mm 1 mps 741 mmHg 55%
    17:00 +18°C° 0 mm 1 mps 741 mmHg 57%
    18:00 +18°C° 0 mm 1 mps 741 mmHg 60%
    19:00 +16°C° 0 mm 1 mps 741 mmHg 63%
    20:00 +15°C° 0 mm 1 mps 741 mmHg 65%
    21:00 +15°C° 0 mm 1 mps 741 mmHg 68%
    22:00 +14°C° 0 mm 1 mps 741 mmHg 71%
    23:00 +14°C° 0 mm 1 mps 741 mmHg 73%

    Day after tomorrow, 19 October, Friday

    Time Temperature Precipitation Wind Pressure Humidity
    00:00 +13°C° 0 mm 1 mps 741 mmHg 76%
    01:00 +13°C° 0 mm 1 mps 741 mmHg 78%
    02:00 +13°C° 0 mm 1 mps 741 mmHg 80%
    03:00 +12°C° 0 mm 1 mps 741 mmHg 82%
    04:00 +12°C° 0 mm 1 mps 742 mmHg 84%
    05:00 +12°C° 0 mm 1 mps 742 mmHg 84%
    06:00 +12°C° 0 mm 1 mps 742 mmHg 85%
    07:00 +12°C° 0 mm 1 mps 742 mmHg 85%
    08:00 +13°C° 0 mm 2 mps 742 mmHg 78%
    09:00 +15°C° 0 mm 2 mps 743 mmHg 72%
    10:00 +16°C° 0 mm 2 mps 743 mmHg 65%
    11:00 +17°C° 0 mm 3 mps 743 mmHg 61%
    12:00 +18°C° 0 mm 3 mps 743 mmHg 58%
    13:00 +18°C° 0 mm 3 mps 743 mmHg 54%
    14:00 +18°C° 0 mm 3 mps 743 mmHg 57%
    15:00 +17°C° 0 mm 3 mps 743 mmHg 60%
    16:00 +16°C° 0 mm 3 mps 743 mmHg 63%
    17:00 +14°C° 0 mm 3 mps 743 mmHg 69%
    18:00 +14°C° 0 mm 2 mps 744 mmHg 76%
    19:00 +13°C° 0 mm 2 mps 744 mmHg 82%
    20:00 +12°C° 0 mm 2 mps 744 mmHg 84%
    21:00 +12°C° 0 mm 2 mps 745 mmHg 87%
    22:00 +10°C° 0 mm 2 mps 745 mmHg 90%
    23:00 +10°C° 0 mm 2 mps 745 mmHg 90%

    20 October, Saturday

    Time Temperature Precipitation Wind Pressure Humidity
    00:00 +9°C° 0 mm 2 mps 745 mmHg 91%
    01:00 +9°C° 0 mm 2 mps 746 mmHg 91%
    02:00 +8°C° 0 mm 2 mps 746 mmHg 91%
    03:00 +9°C° 0 mm 1 mps 746 mmHg 92%
    04:00 +9°C° 0 mm 1 mps 746 mmHg 92%
    05:00 +9°C° 0 mm 1 mps 746 mmHg 92%
    06:00 +9°C° 0 mm 1 mps 746 mmHg 91%
    07:00 +8°C° 0 mm 1 mps 747 mmHg 91%
    08:00 +9°C° 0 mm 2 mps 747 mmHg 80%
    09:00 +10°C° 0 mm 2 mps 747 mmHg 70%
    10:00 +13°C° 0 mm 2 mps 748 mmHg 60%
    11:00 +14°C° 0 mm 2 mps 747 mmHg 55%
    12:00 +13°C° 0 mm 3 mps 747 mmHg 50%
    13:00 +14°C° 0 mm 3 mps 747 mmHg 44%
    14:00 +13°C° 0 mm 3 mps 747 mmHg 48%
    15:00 +13°C° 0 mm 2 mps 747 mmHg 51%
    16:00 +13°C° 0 mm 2 mps 747 mmHg 54%
    17:00 +12°C° 0 mm 2 mps 747 mmHg 59%
    18:00 +10°C° 0 mm 2 mps 747 mmHg 64%
    19:00 +8°C° 0 mm 2 mps 748 mmHg 69%
    20:00 +8°C° 0 mm 2 mps 748 mmHg 73%
    21:00 +7°C° 0 mm 2 mps 748 mmHg 76%
    22:00 +7°C° 0 mm 2 mps 748 mmHg 79%
    23:00 +7°C° 0 mm 2 mps 748 mmHg 80%

    21 October, Sunday

    Time Temperature Precipitation Wind Pressure Humidity
    00:00 +7°C° 0 mm 3 mps 748 mmHg 80%
    01:00 +7°C° 0 mm 3 mps 748 mmHg 80%
    02:00 +7°C° 0 mm 3 mps 748 mmHg 78%
    03:00 +7°C° 0 mm 3 mps 748 mmHg 77%
    04:00 +8°C° 0 mm 3 mps 748 mmHg 75%
    05:00 +7°C° 0 mm 3 mps 748 mmHg 77%
    06:00 +7°C° 0 mm 3 mps 748 mmHg 79%
    07:00 +7°C° 0 mm 3 mps 748 mmHg 81%
    08:00 +8°C° 0 mm 3 mps 748 mmHg 76%
    09:00 +8°C° 0 mm 4 mps 748 mmHg 72%
    10:00 +11°C° 0 mm 4 mps 748 mmHg 67%
    11:00 +11°C° 0 mm 4 mps 748 mmHg 64%
    12:00 +12°C° 0 mm 4 mps 748 mmHg 60%
    13:00 +13°C° 0 mm 4 mps 747 mmHg 57%
    14:00 +12°C° 0 mm 4 mps 747 mmHg 59%
    15:00 +11°C° 0 mm 3 mps 747 mmHg 62%
    16:00 +12°C° 0 mm 2 mps 747 mmHg 64%
    17:00 +10°C° 0 mm 2 mps 747 mmHg 69%
    18:00 +9°C° 0 mm 2 mps 747 mmHg 73%
    19:00 +8°C° 0 mm 2 mps 747 mmHg 78%
    20:00 +8°C° 0 mm 1 mps 747 mmHg 79%
    21:00 +7°C° 0 mm 1 mps 747 mmHg 81%
    22:00 +7°C° 0 mm 1 mps 747 mmHg 83%
    23:00 +7°C° 0 mm 1 mps 747 mmHg 83%

    22 October, Monday

    Time Temperature Precipitation Wind Pressure Humidity
    00:00 +5°C° 0 mm 0 mps 747 mmHg 84%
    01:00 +5°C° 0 mm 0 mps 747 mmHg 85%
    02:00 +5°C° 0 mm 0 mps 747 mmHg 86%
    03:00 +4°C° 0 mm 0 mps 747 mmHg 86%
    04:00 +4°C° 0 mm 0 mps 747 mmHg 87%
    05:00 +4°C° 0 mm 0 mps 747 mmHg 87%
    06:00 +5°C° 0 mm 1 mps 747 mmHg 87%
    07:00 +5°C° 0 mm 1 mps 747 mmHg 87%
    08:00 +7°C° 0 mm 1 mps 747 mmHg 78%
    09:00 +9°C° 0 mm 1 mps 747 mmHg 69%
    10:00 +11°C° 0 mm 1 mps 747 mmHg 60%
    11:00 +12°C° 0 mm 1 mps 747 mmHg 56%
    12:00 +13°C° 0 mm 2 mps 746 mmHg 52%
    13:00 +14°C° 0 mm 2 mps 746 mmHg 48%
    14:00 +13°C° 0 mm 2 mps 746 mmHg 51%
    15:00 +13°C° 0 mm 2 mps 745 mmHg 55%
    16:00 +12°C° 0 mm 2 mps 745 mmHg 59%
    17:00 +10°C° 0 mm 2 mps 745 mmHg 62%
    18:00 +10°C° 0 mm 2 mps 745 mmHg 66%
    19:00 +9°C° 0 mm 2 mps 746 mmHg 70%
    20:00 +9°C° 0 mm 2 mps 746 mmHg 73%
    21:00 +9°C° 0 mm 2 mps 746 mmHg 76%
    22:00 +9°C° 0 mm 2 mps 746 mmHg 79%
    23:00 +8°C° 0 mm 3 mps 745 mmHg 80%
    Show more